Location: Vienna
(48.2082°N, 16.3738°E)
Time: 16:36:12
(UTC+01:00)

ISS - Pass Details

Date: 15 January 2018
Orbit: 402 x 407 km, 51.6° (Epoch: 23 January)

Event Time Altitude Azimuth Distance (km) Brightness Sun altitude
Exits shadow 05:26:33 22° 175° (S) 935 -1.9 -21.7°
Drops below altitude 10° 05:28:11 10° 153° (SSE) 1,461 -0.6 -21.4°
Sets 05:30:24 0° 142° (SE) 2,318 0.7 -21.0°
